| time (UTC) | temp F | wind direction | speed MPH | gust MPH | rain 1hr in | rain 24hr in | rain mn in | humidity % | barometer mb |
| 20260508220314 | 50 | 344 | 1.0 | 2.0 | 0.00 | 0.00 | 0.00 | 93 | |
| 20260508214816 | 48 | 329 | 1.0 | 3.0 | 0.00 | 0.00 | 0.00 | 93 | |
| 20260508213319 | 47 | 327 | 1.0 | 2.0 | 0.00 | 0.00 | 0.00 | 93 | |
| 20260508211817 | 46 | 318 | 1.0 | 2.0 | 0.00 | 0.00 | 0.00 | 93 | |
| 20260508204848 | 46 | 327 | 1.0 | 3.0 | 0.00 | 0.00 | 0.00 | 93 | |
| 20260508203324 | 45 | 329 | 2.0 | 3.0 | 0.00 | 0.00 | 0.00 | 93 | |
| 20260508201840 | 45 | 329 | 1.0 | 3.0 | 0.00 | 0.00 | 0.00 | 93 | |
| 20260508200320 | 45 | 326 | 1.0 | 2.0 | 0.00 | 0.00 | 0.00 | 93 | |
| 20260508194838 | 45 | 326 | 0.0 | 2.0 | 0.00 | 0.00 | 0.00 | 93 | |
| 20260508193319 | 45 | 327 | 0.0 | 0.0 | 0.00 | 0.00 | 0.00 | 92 | |
| 20260508191838 | 45 | 327 | 0.0 | 2.0 | 0.00 | 0.00 | 0.00 | 92 | |
| 20260508190314 | 45 | 327 | 1.0 | 2.0 | 0.00 | 0.00 | 0.00 | 92 | |
| 20260508183320 | 46 | 333 | 0.0 | 0.0 | 0.00 | 0.00 | 0.00 | 93 | |
| 20260508181838 | 46 | 333 | 0.0 | 0.0 | 0.00 | 0.00 | 0.00 | 92 | |
| 20260508180318 | 46 | 333 | 0.0 | 3.0 | 0.00 | 0.00 | 0.00 | 93 | |
| 20260508174816 | 45 | 319 | 2.0 | 2.0 | 0.00 | 0.00 | 0.00 | 92 | |
| 20260508173313 | 45 | 317 | 1.0 | 2.0 | 0.00 | 0.00 | 0.00 | 92 | |
| 20260508171816 | 45 | 325 | 1.0 | 2.0 | 0.00 | 0.00 | 0.00 | 92 | |
| 20260508170313 | 45 | 325 | 0.0 | 3.0 | 0.00 | 0.00 | 0.00 | 92 | |
| 20260508164815 | 45 | 322 | 0.0 | 2.0 | 0.00 | 0.00 | 0.00 | 92 | |
| 20260508163312 | 45 | 322 | 1.0 | 2.0 | 0.00 | 0.00 | 0.00 | 92 | |
| 20260508161828 | 46 | 319 | 0.0 | 2.0 | 0.00 | 0.00 | 0.00 | 92 | |
| 20260508160330 | 45 | 330 | 1.0 | 2.0 | 0.00 | 0.00 | 0.00 | 92 | |
| 20260508154826 | 45 | 315 | 0.0 | 2.0 | 0.00 | 0.00 | 0.00 | 92 | |
| 20260508153322 | 45 | 322 | 1.0 | 2.0 | 0.00 | 0.00 | 0.00 | 92 | |
| 20260508151843 | 45 | 322 | 0.0 | 2.0 | 0.00 | 0.00 | 0.00 | 92 | |
| 20260508150321 | 45 | 326 | 1.0 | 2.0 | 0.00 | 0.00 | 0.00 | 92 | |
| 20260508144823 | 45 | 326 | 1.0 | 2.0 | 0.00 | 0.00 | 0.00 | 92 | |
| 20260508143322 | 46 | 319 | 1.0 | 2.0 | 0.00 | 0.00 | 0.00 | 92 | |
| 20260508141823 | 46 | 311 | 1.0 | 2.0 | 0.00 | 0.00 | 0.00 | 92 | |
| 20260508140346 | 46 | 325 | 0.0 | 2.0 | 0.00 | 0.00 | 0.00 | 91 | |
| 20260508134823 | 46 | 340 | 0.0 | 2.0 | 0.00 | 0.00 | 0.00 | 91 | |
| 20260508133321 | 46 | 340 | 0.0 | 2.0 | 0.00 | 0.00 | 0.00 | 91 | |
| 20260508131822 | 46 | 340 | 1.0 | 3.0 | 0.00 | 0.00 | 0.00 | 91 | |
| 20260508130340 | 46 | 331 | 0.0 | 2.0 | 0.00 | 0.00 | 0.00 | 91 | |
| 20260508124819 | 46 | 331 | 1.0 | 2.0 | 0.00 | 0.00 | 0.00 | 91 | |
| 20260508123314 | 46 | 331 | 0.0 | 2.0 | 0.00 | 0.00 | 0.00 | 91 | |
| 20260508121811 | 46 | 331 | 0.0 | 0.0 | 0.00 | 0.00 | 0.00 | 91 | |
| 20260508120314 | 47 | 331 | 0.0 | 0.0 | 0.00 | 0.00 | 0.00 | 91 | |
| 20260508114829 | 47 | 331 | 0.0 | 0.0 | 0.00 | 0.00 | 0.00 | 91 | |
| 20260508113346 | 47 | 331 | 0.0 | 0.0 | 0.00 | 0.00 | 0.00 | 91 | |
| 20260508111827 | 47 | 331 | 0.0 | 0.0 | 0.00 | 0.00 | 0.00 | 90 | |
| 20260508110322 | 47 | 331 | 0.0 | 0.0 | 0.00 | 0.00 | 0.00 | 90 | |
| 20260508104824 | 48 | 331 | 0.0 | 0.0 | 0.00 | 0.00 | 0.00 | 90 | |
| 20260508103321 | 48 | 331 | 0.0 | 0.0 | 0.00 | 0.00 | 0.00 | 90 | |
| 20260508101820 | 48 | 331 | 0.0 | 0.0 | 0.00 | 0.00 | 0.00 | 90 | |
| 20260508100322 | 48 | 331 | 0.0 | 0.0 | 0.00 | 0.00 | 0.00 | 90 | |
| 20260508094840 | 48 | 331 | 0.0 | 0.0 | 0.00 | 0.00 | 0.00 | 89 | |
| 20260508093338 | 49 | 331 | 0.0 | 0.0 | 0.00 | 0.00 | 0.00 | 89 | |
| 20260508091816 | 49 | 331 | 1.0 | 2.0 | 0.00 | 0.00 | 0.00 | 89 | |
| 20260508090335 | 49 | 331 | 1.0 | 2.0 | 0.00 | 0.00 | 0.00 | 88 | |
| 20260508084816 | 50 | 331 | 0.0 | 0.0 | 0.00 | 0.00 | 0.00 | 88 | |
| 20260508083334 | 50 | 331 | 0.0 | 0.0 | 0.00 | 0.00 | 0.00 | 88 | |
| 20260508081811 | 50 | 331 | 0.0 | 0.0 | 0.00 | 0.00 | 0.00 | 87 | |
| 20260508080332 | 51 | 331 | 0.0 | 1.0 | 0.00 | 0.00 | 0.00 | 86 | |
| 20260508074830 | 51 | 331 | 1.0 | 2.0 | 0.00 | 0.00 | 0.00 | 85 | |
| 20260508073310 | 52 | 324 | 1.0 | 2.0 | 0.00 | 0.00 | 0.00 | 84 | |
| 20260508071848 | 53 | 324 | 1.0 | 1.0 | 0.00 | 0.00 | 0.00 | 82 | |
| 20260508070325 | 54 | 322 | 1.0 | 2.0 | 0.00 | 0.00 | 0.00 | 81 | |
| 20260508064826 | 55 | 322 | 1.0 | 2.0 | 0.00 | 0.00 | 0.00 | 78 | |
| 20260508063322 | 57 | 333 | 0.0 | 1.0 | 0.00 | 0.00 | 0.00 | 75 | |
| 20260508061821 | 59 | 333 | 1.0 | 2.0 | 0.00 | 0.00 | 0.00 | 72 | |
| 20260508060323 | 60 | 333 | 0.0 | 2.0 | 0.00 | 0.00 | 0.00 | 71 | |
| 20260508054820 | 61 | 348 | 1.0 | 2.0 | 0.00 | 0.00 | 0.00 | 68 | |
| 20260508053342 | 63 | 331 | 0.0 | 2.0 | 0.00 | 0.00 | 0.00 | 64 | |
| 20260508051838 | 65 | 349 | 0.0 | 2.0 | 0.00 | 0.00 | 0.00 | 63 | |
| 20260508050315 | 67 | 76 | 0.0 | 2.0 | 0.00 | 0.00 | 0.00 | 58 | |
| 20260508044816 | 67 | 76 | 0.0 | 2.0 | 0.00 | 0.00 | 0.00 | 48 | |
| 20260508043314 | 66 | 153 | 0.0 | 3.0 | 0.00 | 0.00 | 0.00 | 51 | |
| 20260508041811 | 67 | 189 | 1.0 | 2.0 | 0.00 | 0.00 | 0.00 | 44 | |
| 20260508040312 | 67 | 314 | 0.0 | 2.0 | 0.00 | 0.00 | 0.00 | 48 | |
| 20260508034849 | 68 | 314 | 0.0 | 2.0 | 0.00 | 0.00 | 0.00 | 44 | |
| 20260508033310 | 68 | 347 | 1.0 | 3.0 | 0.00 | 0.00 | 0.00 | 48 | |
| 20260508031828 | 68 | 269 | 0.0 | 3.0 | 0.00 | 0.00 | 0.00 | 51 | |
| 20260508030326 | 68 | 269 | 0.0 | 2.0 | 0.00 | 0.00 | 0.00 | 45 | |
| 20260508024828 | 67 | 127 | 0.0 | 2.0 | 0.00 | 0.00 | 0.00 | 48 | |
| 20260508023325 | 68 | 34 | 0.0 | 3.0 | 0.00 | 0.00 | 0.00 | 45 | |
| 20260508021823 | 67 | 11 | 1.0 | 2.0 | 0.00 | 0.00 | 0.00 | 53 | |
| 20260508020324 | 66 | 11 | 1.0 | 2.0 | 0.00 | 0.00 | 0.00 | 46 | |
| 20260508014844 | 66 | 11 | 1.0 | 2.0 | 0.00 | 0.00 | 0.00 | 47 | |
| 20260508013322 | 66 | 340 | 0.0 | 2.0 | 0.00 | 0.00 | 0.00 | 50 | |
| 20260508011820 | 65 | 340 | 0.0 | 2.0 | 0.00 | 0.00 | 0.00 | 52 | |
| 20260508010316 | 64 | 313 | 0.0 | 2.0 | 0.00 | 0.00 | 0.00 | 51 | |
| 20260508004818 | 63 | 30 | 0.0 | 2.0 | 0.00 | 0.00 | 0.00 | 52 | |
| 20260508003316 | 62 | 220 | 0.0 | 2.0 | 0.00 | 0.00 | 0.00 | 61 | |
| 20260508001818 | 61 | 325 | 0.0 | 1.0 | 0.00 | 0.00 | 0.00 | 52 | |
| 20260508000316 | 60 | 325 | 1.0 | 2.0 | 0.00 | 0.00 | 0.00 | 59 | |
| 20260507233310 | 55 | 303 | 0.0 | 2.0 | 0.00 | 0.00 | 0.00 | 69 | |
| 20260507231811 | 52 | 337 | 1.0 | 2.0 | 0.00 | 0.00 | 0.00 | 74 | |
| 20260507230311 | 50 | 337 | 0.0 | 1.0 | 0.00 | 0.00 | 0.00 | 74 | |
| 20260507224834 | 49 | 337 | 0.0 | 0.0 | 0.00 | 0.00 | 0.00 | 79 | |
| 20260507223313 | 46 | 326 | 1.0 | 1.0 | 0.00 | 0.00 | 0.00 | 81 | |
| 20260507221838 | 45 | 337 | 0.0 | 1.0 | 0.00 | 0.00 | 0.00 | 84 |